User: anonymous   Login
Location: Asheville, NC
(35.6000°N, 82.5500°W)
Time: 10:19:24
(UTC-05:00)
Language:

AAUSAT CUBESAT 2 - Orbit

View from above orbital plane
View from above orbital plane
View from above satellite
View from above satellite

Ground track
Ground track

The orbit data is extracted from the following two-line orbital elements,

1 32788U 08021F   18049.89845965 +.00000840 +00000-0 +83354-4 0  9994
2 32788 097.5343 081.2629 0012533 031.9904 328.2075 14.94223799532411
Epoch (UTC): 18 February 2018 21:33:46
Eccentricity: 0.0012533
inclination: 97.5343°
perigee height: 576 km
apogee height: 593 km
right ascension of ascending node: 81.2629°
argument of perigee: 31.9904°
revolutions per day: 14.94223799
mean anomaly at epoch: 328.2075°
orbit number at epoch: 53241

The dashed part of the orbit path shows where the satellite is in the earth's shadow,  

DLR